Cloud_Cover
27 65 29 5 100 100 100 100 98 35 14 5 5 100 100 100 100 100 100 100 96 100 100 100 100 100 100 100 32 2 3 0 0 27 100 100 100 100 100 100 54 90 100 99 97 56 22 14 5 14 35 94 62 100
87 62 76 59 98 100 100 100 99 99 5 5 5 100 96 100 100 100 100 100 100 100 100 100 100 100 100 100 95 0 0 2 0 80 100 100 100 100 100 100 96 11 100 100 100 26 0 0 5 30 66 59 65 100
69 6 25 85 55 100 100 100 100 73 16 5 6 28 100 100 100 100 100 100 100 100 100 100 100 100 100 100 31 0 0 0 0 81 100 100 100 100 100 100 100 16 100 100 100 99 0 0 3 14 60 5 90 100
5 5 5 73 73 100 100 98 98 27 20 5 78 100 100 100 100 100 100 100 100 100 100 98 83 100 100 100 22 1 0 0 0 77 100 100 100 100 100 100 100 33 92 92 100 100 70 1 0 4 5 80 100 99
11 5 5 11 5 25 96 63 21 100 5 27 100 100 100 100 100 100 100 100 100 100 100 100 100 100 100 100 64 5 0 0 1 99 100 100 100 100 100 100 100 66 82 92 100 100 100 44 1 5 4 5 19 22
81 5 5 5 5 5 100 29 65 30 13 100 100 100 100 100 100 100 100 100 100 100 100 100 100 100 100 100 100 5 0 0 4 100 100 100 100 100 100 100 100 99 43 100 100 90 100 100 75 5 5 3 11 53
100 93 71 5 5 5 5 10 6 6 8 94 100 100 100 100 100 100 100 100 100 100 100 100 100 100 99 100 98 29 2 8 9 100 100 100 100 99 100 100 100 100 100 99 100 93 100 100 100 81 6 5 5 5
94 80 8 5 5 5 5 5 5 5 5 23 100 100 100 100 100 100 100 100 100 100 100 100 100 100 100 100 100 100 45 90 83 100 100 100 100 91 100 100 100 100 100 100 100 100 97 100 100 100 100 58 8 7
5 5 39 5 10 16 5 5 5 5 5 100 100 100 100 100 100 100 100 100 100 100 100 99 100 100 100 100 100 100 73 100 33 100 100 100 96 85 100 100 100 100 100 100 100 100 100 100 100 100 100 100 100 64
5 5 5 5 5 5 5 65 5 5 40 100 100 100 100 100 100 100 100 100 100 100 100 98 100 100 100 96 100 100 100 99 98 99 100 100 100 100 100 96 96 100 100 100 100 100 100 100 88 100 100 100 100 100
49 5 53 5 5 5 65 59 5 5 100 100 100 100 100 100 100 100 100 100 100 100 100 99 100 100 100 92 100 100 100 79 48 80 100 100 100 100 100 88 86 100 100 100 100 100 100 100 59 71 93 100 100 100
100 90 92 90 28 5 5 5 5 29 100 100 100 100 100 100 100 100 100 100 100 100 100 100 100 100 100 100 100 93 74 87 24 93 100 100 100 100 100 86 78 97 100 100 100 100 91 90 88 36 33 56 100 100
100 64 100 100 62 5 8 5 5 72 100 100 100 100 100 100 100 100 100 100 100 100 100 99 91 94 100 100 94 100 80 93 96 99 95 100 100 100 100 99 21 9 100 100 100 100 100 100 100 72 71 84 100 100
80 6 100 97 99 73 9 92 5 34 100 100 100 100 100 100 100 100 100 100 100 100 100 100 100 100 100 100 100 98 94 87 100 100 91 100 100 100 100 82 13 6 92 100 100 100 100 100 100 100 98 99 100 100
100 97 84 100 100 100 98 7 6 99 100 100 100 100 100 100 100 100 100 100 100 100 100 100 100 100 100 100 94 66 100 99 90 90 96 100 100 100 100 100 45 18 91 100 100 100 100 100 100 100 100 100 100 100
100 100 100 100 94 100 4 3 50 100 100 100 100 100 100 100 100 100 100 100 100 100 100 100 100 100 100 94 83 77 41 44 31 67 74 100 100 100 100 100 99 74 100 99 100 100 100 100 100 100 100 100 100 100
27 60 86 100 96 1 1 73 99 100 100 100 100 100 100 100 100 100 100 100 100 100 100 100 99 97 96 92 88 54 5 13 24 60 100 100 100 100 100 100 100 100 100 100 100 100 100 100 100 100 100 100 100 100
6 5 44 55 2 47 100 100 100 100 100 100 100 100 100 100 100 100 100 100 100 100 100 100 100 100 63 68 97 91 68 100 76 66 100 100 100 100 100 100 100 100 100 100 100 100 100 100 100 100 100 100 100 100
5 8 7 5 2 93 100 80 100 100 100 100 100 100 100 100 100 100 100 100 100 100 100 100 100 94 98 96 100 83 47 60 93 85 90 100 100 100 100 100 100 100 100 100 100 100 100 100 100 100 100 100 100 100
30 6 5 4 0 18 95 89 100 100 100 100 100 100 100 100 100 100 100 100 100 100 100 100 100 100 100 99 98 90 72 100 79 30 94 100 100 100 100 100 100 100 100 100 100 100 100 100 100 100 100 100 100 100
10 14 4 3 8 5 32 100 100 100 100 100 100 100 100 100 100 100 100 100 100 100 100 100 100 100 100 90 100 100 87 50 96 61 53 100 100 100 100 100 100 100 100 100 100 100 100 100 100 100 100 100 100 100
70 7 5 4 6 6 35 100 100 100 100 100 100 100 100 100 100 100 100 100 100 100 100 100 100 100 100 100 100 92 92 94 78 64 21 98 100 100 100 100 100 100 100 100 100 100 100 100 100 100 100 100 100 100
5 3 5 5 5 37 99 100 100 100 100 100 100 100 100 100 100 100 100 100 100 100 100 100 100 100 100 100 100 98 89 89 25 30 51 41 34 100 100 100 100 100 100 100 100 100 100 100 100 100 100 100 100 100
2 6 70 88 90 78 28 100 100 100 100 100 100 100 100 100 100 100 100 100 100 100 100 100 100 100 100 100 100 100 99 75 82 95 100 100 100 85 100 100 97 99 100 100 100 100 100 100 100 100 100 100 99 87
4 45 31 81 79 62 100 100 100 100 100 100 100 100 100 100 100 100 100 100 100 100 100 100 100 100 96 95 82 80 94 85 100 100 100 100 100 100 100 100 79 96 83 76 68 72 88 79 97 99 94 54 30 44
97 96 42 97 95 10 87 75 95 99 100 100 100 100 100 100 100 100 100 100 100 100 100 100 100 100 100 100 100 100 100 100 100 100 100 100 100 100 96 100 94 25 78 88 68 32 34 71 47 19 5 54 10 57
83 99 95 99 50 50 67 75 75 59 100 74 99 100 100 100 100 100 100 100 100 100 100 100 100 99 100 92 98 99 88 100 100 100 99 92 94 95 87 98 100 75 54 53 18 10 5 5 5 5 34 61 82 70
94 95 68 91 87 79 89 96 83 94 93 52 41 44 98 29 92 100 100 98 92 100 100 100 100 100 100 100 100 100 93 87 100 97 100 98 100 100 99 94 98 24 10 5 20 5 5 5 5 14 28 76 77 78
98 92 88 97 98 94 100 92 93 96 89 55 59 80 78 95 97 96 98 100 100 97 79 99 100 100 100 100 100 91 90 100 99 99 98 70 67 82 100 100 100 100 98 98 95 84 71 38 17 5 46 30 53 17
92 88 80 100 80 100 97 100 100 100 100 100 89 85 74 72 73 69 61 63 77 94 90 94 92 89 87 97 96 100 99 94 92 100 99 99 100 100 100 100 100 100 100 100 99 88 48 30 28 44 24 5 53 26
62 62 50 87 86 86 75 77 86 88 89 98 99 89 82 90 96 88 87 94 85 88 94 99 100 98 88 91 89 88 84 88 90 85 99 99 100 99 100 100 99 98 99 98 81 44 32 29 38 11 14 25 55 45
26 94 65 87 77 84 69 69 94 85 79 81 96 91 98 94 97 90 93 78 95 100 100 100 100 100 100 99 91 70 99 100 88 93 99 100 100 100 100 100 98 78 68 52 5 5 9 11 50 56 62 59 50 51
93 89 79 84 86 72 28 72 88 96 96 95 96 95 90 81 76 88 93 82 84 85 99 100 100 100 100 99 94 97 100 100 100 100 100 100 100 98 89 84 76 62 16 6 42 47 28 45 44 68 79 72 30 25